星链-32679 (STARLINK-32679)

导读 | 星芒AI

STARLINK-32679 是 SpaceX Starlink 卫星互联网项目中的一颗低轨卫星,属于第三代星链卫星(v1.5 或 v2 版本)。该卫星于 2023 年发射,运行在约 550 公里的轨道高度,旨在为全球用户提供高速、低延迟的互联网服务。Starlink 项目计划部署数万颗卫星,以构建覆盖全球的宽带网络,尤其服务于偏远地区。STARLINK-32679 与其他星链卫星协同工作,提升网络容量和连接稳定性。

基本信息
目录编号:
62507
目录名称:
STARLINK-32679
国际标识:
2025-003W
轨道中心:
EARTH
卫星名称:
星链-32679
卫星全名:
星链-32679 (STARLINK-32679)
卫星状态:
在轨 (已飞行305 天)
发射日期:
2025-01-06 UTC
国别 :
美国 (US)
星等 :
--
轨道信息
数据来源 国际轨道数据
星历时间: 2025-11-07T06:30:57+0800
19小时前
查看轨道信息
半长轴: 6861.181km
偏心率: 0.0001722
轨道倾角: 43.004°
近地点辐角 275.672°
升交点赤经 262.572°
平近点角 84.394°
近地点: 481.864km
远地点: 484.228km
周期: 94.267分钟
每日圈数: 15.275818
详细信息
固有亮度:
5
最大亮度:
2.5
卫星平台:
Starlink V1.0
覆盖范围:
全球
运营商:
太空探索技术公司
运营商所在国:
美国
制造商(研发单位):
太空探索技术公司
制造商所在国:
美国
使用方式:
暂无
卫星简介
Starlink 计划是 SpaceX 推出的全球卫星互联网项目,通过发射低轨道卫星,为全球尤其是偏远地区提供高速、低延迟的互联网服务。自 2019 年起,Starlink 已部署数千颗卫星,旨在缩小全球数字鸿沟,推动互联网普及。该项目还为军事、航空等行业提供通信支持,带来广泛经济效益。
2D轨道图
3D轨道图
轨道高度分析图
轨道倾角分析图
轨道综合分析图
查看轨道综合分析图